{"data":{"norad_id":68093,"intl_designator":"2026-042AA","name":"STARLINK-36251","alt_names":[],"object_type":"PAYLOAD","status":"ACTIVE","operator":null,"country":"US","launch_date":"2026-03-04","launch_site_code":"AFETR","launch_vehicle":null,"mission":null,"orbit_class":"UNKNOWN","rcs_meters":null,"size_class":null,"mass_kg":null,"dimensions":null,"purposes":["comms"],"wikipedia_slug":null,"has_3d_model":false,"image_url":null,"decayed_at":null,"tle_current":{"epoch":"2026-05-25T02:32:03.788160Z","epoch_age_seconds":65990,"freshness":"FRESH","line1":"1 68093U 26042AA  26145.10559940  .00022651  00000+0  67948-3 0  9993","line2":"2 68093  53.1593 183.1482 0001416  89.1238 270.9927 15.34401335 14004","mean_motion":15.34401335,"eccentricity":0.0001416,"inclination_deg":53.1593,"raan_deg":183.1482,"arg_perigee_deg":89.1238,"mean_anomaly_deg":270.9927,"bstar":0.00067948,"rev_number":1400,"period_min":93.847676429453,"perigee_km":461.73060989248,"apogee_km":463.6679347248,"semimajor_km":6840.8362723086,"source":"CELESTRAK","updated_at":"2026-05-25T13:38:21.839318Z"}}}